Regional Weather Roundup
Issued by NWS

Home | Current Version | Previous Version | Text Only | Print | Product List | Glossary On
Versions: 1 2 3 4 5 6 7 8 9 10 11 12 13 14 15 16 17 18 19 20 21 22 23 24 25 26 27 28 29 30 31 32 33 34 35 36 37 38 39 40 41 42 43 44 45 46 47 48 49 50
000
ASUS44 KMEG 302000
RWRTN
TENNESSEE HOURLY STATE WEATHER ROUNDUP
NATIONAL WEATHER SERVICE MEMPHIS TN
300 PM CDT MON MAR 30 2015

TNZ002-004-019-021-049-052-054-088>092-302100-
WEST TENNESSEE

CITY           SKY/WX    TMP DP  RH WIND       PRES   REMARKS
MEMPHIS INTL   FAIR      72  35  25 NE3       30.17F
NWS MEMPHIS      N/A    N/A N/A N/A MISG        N/A
JACKSON        FAIR      68  30  24 VRB3      30.17F
DYERSBURG      FAIR      66  30  26 NW3       30.17F
PARIS          SUNNY     63  30  29 VRB5      30.16F
LEXINGTON      SUNNY     68  28  22 W6        30.15F
SAVANNAH       SUNNY     66  36  32 SW5       30.17F
$$

TNZ008-025-027-028-033-062-065-066-302100-
NORTH MIDDLE TENNESSEE

CITY           SKY/WX    TMP DP  RH WIND       PRES   REMARKS
NASHVILLE      FAIR      69  25  19 NW10      30.14F
CLARKSVILLE    FAIR      65  25  22 NW7       30.14F
CROSSVILLE     FAIR      63  25  23 W14G20    30.12F
$$

TNZ061-075-076-078-094-096-097-302100-
SOUTH MIDDLE TENNESSEE

CITY           SKY/WX    TMP DP  RH WIND       PRES   REMARKS
FAYETTEVILLE   SUNNY     64  34  32 VRB7      30.16F
TULLAHOMA      SUNNY     64  30  27 NW6       30.15F
WINCHESTER     SUNNY     64  34  32 W10       30.16F
COLUMBIA       SUNNY     66  36  32 CALM      30.14F
SHELBYVILLE    SUNNY     66  34  30 W9        30.16F
$$

TNZ017-018-042-046-047-302100-
NORTHEAST TENNESSEE

CITY           SKY/WX    TMP DP  RH WIND       PRES   REMARKS
TRI CITIES     FAIR      62  31  31 NW16G24   30.05F
ELIZABETHTON   CLEAR     57  30  35 W13       30.04F
$$

TNZ012-013-036-069-073-074-302100-
CENTRAL EAST TENNESSEE

CITY           SKY/WX    TMP DP  RH WIND       PRES   REMARKS
KNOXVILLE      FAIR      66  30  26 SW10G22   30.08F
OAK RIDGE      FAIR      68  28  22 VRB7      30.08F
$$

TNZ083-085-099-302100-
SOUTHEAST TENNESSEE

CITY           SKY/WX    TMP DP  RH WIND       PRES   REMARKS
CHATTANOOGA    FAIR      70  34  26 W9        30.12F
$$

SKY/WX REPORTED AS FAIR MEANS FEW OR NO CLOUDS BELOW
12 THOUSAND FEET.




USA.gov is the U.S. government's official web portal to all federal, state and local government web resources and services.